| time (UTC) | temp C | wind direction | speed KPH | gust KPH | rain 1hr cm | rain 24hr cm | rain mn cm | humidity % | barometer mb |
| 20260508070330 | 26 | 0.0 | 0.0 | 0.00 | 0.10 | 0.00 | 35 | 997.4 | |
| 20260508060334 | 24 | 0.0 | 0.0 | 0.00 | 0.10 | 0.00 | 40 | 997.6 | |
| 20260508050333 | 24 | 0.0 | 0.0 | 0.00 | 0.10 | 0.00 | 45 | 997.8 | |
| 20260508040336 | 21 | 0.0 | 0.0 | 0.00 | 0.10 | 0.00 | 56 | 997.9 | |
| 20260508030321 | 18 | 0.0 | 0.0 | 0.00 | 0.10 | 0.00 | 65 | 998.2 | |
| 20260508020352 | 16 | 0.0 | 0.0 | 0.00 | 0.10 | 0.00 | 73 | 998.6 | |
| 20260508010332 | 14 | 0.0 | 0.0 | 0.00 | 0.10 | 0.00 | 79 | 998.5 | |
| 20260508000350 | 13 | 0.0 | 0.0 | 0.00 | 0.10 | 0.00 | 83 | 998.3 | |
| 20260507220330 | 12 | 0.0 | 0.0 | 0.00 | 0.10 | 0.00 | 85 | 998.3 | |
| 20260507210357 | 12 | 0.0 | 0.0 | 0.00 | 0.10 | 0.00 | 82 | 998.4 | |
| 20260507200344 | 13 | 0.0 | 0.0 | 0.00 | 0.10 | 0.00 | 80 | 998.5 | |
| 20260507190331 | 14 | 0.0 | 0.0 | 0.00 | 0.10 | 0.00 | 78 | 999.1 | |
| 20260507180336 | 15 | 0.0 | 0.0 | 0.00 | 0.10 | 0.00 | 76 | 999.3 | |
| 20260507170335 | 15 | 0.0 | 0.0 | 0.00 | 0.10 | 0.00 | 74 | 999.7 | |
| 20260507160330 | 16 | 0.0 | 0.0 | 0.00 | 0.20 | 0.03 | 70 | 1000.0 | |
| 20260507150345 | 16 | 0.0 | 0.0 | 0.00 | 0.20 | 0.03 | 68 | 1000.3 | |
| 20260507130327 | 20 | 0.0 | 0.0 | 0.00 | 0.20 | 0.03 | 55 | 1000.6 | |
| 20260507120347 | 21 | 0.0 | 0.0 | 0.00 | 0.20 | 0.03 | 50 | 1000.9 | |
| 20260507110351 | 22 | 0.0 | 0.0 | 0.00 | 0.20 | 0.03 | 47 | 1000.9 | |
| 20260507100335 | 22 | 0.0 | 0.0 | 0.00 | 0.20 | 0.03 | 45 | 1001.2 | |
| 20260507090348 | 22 | 0.0 | 0.0 | 0.00 | 0.20 | 0.03 | 46 | 1001.6 | |
| 20260507080326 | 22 | 0.0 | 0.0 | 0.10 | 0.20 | 0.03 | 49 | 1001.9 |